エルスト-ピサロ彗星

133P/(7968) Elst-Pizarro (2001)

English version
Home page
Updated on November 13, 2005

---------------------------------------------------------------------

・ プロフィール

・ 軌道要素

Epoch 2001 Nov. 27.0 TT = JDT 2452240.5  
T 2001 Nov. 23.67657 TT                                 Muraoka 
q   2.6354065            (2000.0)            P               Q
n   0.17566287     Peri.  133.00087     +0.39450289     +0.91885830
a   3.1575439      Node   160.22960     -0.84994722     +0.36827026
e   0.1653619      Incl.    1.38549     -0.34922371     +0.14169132
P   5.61
From 186 observations 1979-2000, mean residual 0".64.

・ 星図

・ 光度変化

        H = 15.5  G = 0.15

---------------------------------------------------------------------

軌道要素は村岡健治氏の計算によるものです。
星図は StellaNavigator Ver.2.0 for Windows (アストロアーツ 編著 / アスキー出版局刊) で作成したものです。
光度グラフはComet for Windowsで作成したものです。

---------------------------------------------------------------------

Copyright(C) Seiichi Yoshida (comet@aerith.net). All rights reserved.